Date String (YYYY-MM-DD hh:mm:ss) UTC,Instrument flags,Ambient pressure (hPa),Sample flow (lpm),Bypass flow (lpm),Sample temperature (°C),Ambient temperature (°C),ASC tube jacket temperature (°C),LED temperature (°C),Box temperature (°C),Sample RH (%),Span deviation,Mass concentration (μg/m³),Mass concentration (μg/m³),Mass concentration (μg/m³)
DateTimeUTC,F1_M11,P_M11,Q1_M11,Q2_M11,T1_M11,T2_M11,T3_M11,T4_M11,T5_M11,U1_M11,ZSPAN_M11,X0_M11,X2_M11,X1_M11
2022-02-22 07:00:00,,0820.6,5.00,0.00,22.4,22.1,00.0,31.3,24.1,04.6,0000.0,0007.95,0004.02,0003.45
2022-02-22 07:01:00,,0820.6,5.00,0.00,22.3,21.6,00.0,31.3,23.9,04.6,0000.0,0008.26,0003.98,0003.43
2022-02-22 07:02:00,,0820.7,5.00,0.00,22.2,21.3,00.0,31.3,23.8,04.6,0000.0,0008.12,0003.95,0003.42
2022-02-22 07:03:00,,0820.9,4.99,0.00,22.1,21.1,00.0,31.2,23.6,04.6,0000.0,0008.04,0003.95,0003.41
2022-02-22 07:04:00,,0821.0,5.00,0.00,22.1,21.4,00.0,31.2,23.6,04.6,0000.0,0007.99,0003.94,0003.40
2022-02-22 07:05:00,,0821.0,5.01,0.00,22.2,22.2,00.0,31.3,23.9,04.6,0000.0,0007.76,0003.93,0003.40
2022-02-22 07:06:00,,0821.0,5.00,0.00,22.3,22.9,00.0,31.3,24.2,04.6,0000.0,0007.41,0003.90,0003.40
2022-02-22 07:07:00,,0820.8,5.00,0.00,22.5,23.2,00.0,31.3,24.4,04.5,0000.0,0007.84,0003.89,0003.40
2022-02-22 07:08:00,,0820.8,5.00,0.00,22.5,22.9,00.0,31.3,24.3,04.5,0000.0,0008.12,0003.89,0003.40
2022-02-22 07:09:00,,0820.7,4.99,0.00,22.4,22.5,00.0,31.3,24.1,04.5,0000.0,0008.65,0003.87,0003.40
2022-02-22 07:10:00,,0820.8,5.01,0.00,22.3,22.1,00.0,31.3,23.9,04.5,0000.0,0008.73,0003.85,0003.39
2022-02-22 07:11:00,,0820.8,5.00,0.00,22.2,21.7,00.0,31.3,23.7,04.5,0000.0,0008.85,0003.86,0003.39
2022-02-22 07:12:00,,0820.8,4.99,0.00,22.2,21.8,00.0,31.3,23.7,04.5,0000.0,0008.63,0003.85,0003.38
2022-02-22 07:13:00,,0820.8,5.00,0.00,22.3,22.4,00.0,31.3,23.9,04.5,0000.0,0008.39,0003.84,0003.38
2022-02-22 07:14:00,,0820.9,5.00,0.00,22.4,23.0,00.0,31.3,24.2,04.4,0000.0,0008.44,0003.84,0003.38
2022-02-22 07:15:00,,0820.8,5.00,0.00,22.5,23.4,00.0,31.4,24.4,04.4,0000.0,0008.81,0003.84,0003.37
2022-02-22 07:16:00,,0820.9,5.02,0.00,22.5,23.0,00.0,31.4,24.3,04.4,0000.0,0008.84,0003.84,0003.36
2022-02-22 07:17:00,,0820.9,4.99,0.00,22.4,22.5,00.0,31.4,24.1,04.4,0000.0,0008.99,0003.87,0003.34
2022-02-22 07:18:00,,0820.8,5.01,0.00,22.3,22.1,00.0,31.4,23.9,04.4,0000.0,0008.68,0003.87,0003.31
2022-02-22 07:19:00,,0820.8,5.00,0.00,22.3,21.8,00.0,31.3,23.7,04.4,0000.0,0008.34,0003.86,0003.29
2022-02-22 07:20:00,,0820.9,5.00,0.00,22.2,21.8,00.0,31.3,23.7,04.4,0000.0,0007.96,0003.85,0003.28
2022-02-22 07:21:00,,0820.9,4.99,0.00,22.3,22.4,00.0,31.4,23.9,04.4,0000.0,0007.72,0003.84,0003.27
2022-02-22 07:22:00,,0820.9,5.01,0.00,22.4,23.0,00.0,31.4,24.2,04.4,0000.0,0007.65,0003.82,0003.27
2022-02-22 07:23:00,,0820.8,5.00,0.00,22.5,23.3,00.0,31.4,24.4,04.4,0000.0,0008.18,0003.82,0003.26
2022-02-22 07:24:00,,0821.0,4.99,0.00,22.6,23.0,00.0,31.4,24.3,04.4,0000.0,0009.36,0003.82,0003.27
2022-02-22 07:25:00,,0821.1,5.01,0.00,22.5,22.5,00.0,31.4,24.1,04.4,0000.0,0009.37,0003.81,0003.27
2022-02-22 07:26:00,,0821.3,5.01,0.00,22.4,22.0,00.0,31.4,24.0,04.4,0000.0,0008.97,0003.80,0003.27
2022-02-22 07:27:00,,0821.4,5.01,0.00,22.3,21.5,00.0,31.4,23.8,04.4,0000.6,0008.96,0003.81,0003.29
2022-02-22 07:28:00,,0821.4,4.99,0.00,22.2,21.2,00.0,31.3,23.7,04.4,0000.0,0008.92,0003.78,0003.29
2022-02-22 07:29:00,,0821.3,5.00,0.00,22.3,21.8,00.0,31.4,23.8,04.4,0000.0,0008.98,0003.81,0003.31
2022-02-22 07:30:00,,0821.2,5.01,0.00,22.4,22.6,00.0,31.4,24.1,04.3,0000.0,0009.02,0003.79,0003.30
2022-02-22 07:31:00,,0821.1,5.00,0.00,22.5,23.0,00.0,31.4,24.3,04.3,0000.0,0009.27,0003.80,0003.30
2022-02-22 07:32:00,,0821.0,4.99,0.00,22.5,22.7,00.0,31.4,24.2,04.3,0000.0,0009.57,0003.81,0003.31
2022-02-22 07:33:00,,0820.8,5.00,0.00,22.4,22.3,00.0,31.4,24.0,04.3,0000.0,0009.70,0003.84,0003.32
2022-02-22 07:34:00,,0820.9,5.00,0.00,22.3,21.9,00.0,31.4,23.8,04.3,0000.0,0009.67,0003.85,0003.33
2022-02-22 07:35:00,,0821.1,5.00,0.00,22.2,21.6,00.0,31.4,23.6,04.3,0000.0,0008.68,0003.89,0003.32
2022-02-22 07:36:00,,0821.4,5.01,0.00,22.1,21.6,00.0,31.3,23.6,04.3,0000.0,0008.75,0003.90,0003.32
2022-02-22 07:37:00,,0821.5,4.99,0.00,22.2,22.3,00.0,31.4,23.9,04.3,0000.0,0008.88,0003.85,0003.30
2022-02-22 07:38:00,,0821.4,5.00,0.00,22.4,22.9,00.0,31.4,24.2,04.3,0000.0,0009.14,0003.83,0003.29
2022-02-22 07:39:00,,0821.3,5.00,0.00,22.5,23.2,00.0,31.4,24.3,04.3,0000.0,0009.51,0003.84,0003.28
2022-02-22 07:40:00,,0821.2,5.00,0.00,22.5,22.8,00.0,31.4,24.3,04.2,0000.0,0009.52,0003.84,0003.28
2022-02-22 07:41:00,,0821.1,4.99,0.00,22.4,22.5,00.0,31.4,24.1,04.3,0000.0,0009.47,0003.84,0003.28
2022-02-22 07:42:00,,0821.1,5.00,0.00,22.3,22.1,00.0,31.4,23.9,04.3,0001.8,0009.07,0003.85,0003.29
2022-02-22 07:43:00,,0821.0,5.00,0.00,22.2,21.7,00.0,31.4,23.7,04.3,0002.4,0009.05,0003.85,0003.30
2022-02-22 07:44:00,,0821.1,5.01,0.00,22.1,21.5,00.0,31.3,23.6,04.4,0002.3,0008.90,0003.82,0003.30
2022-02-22 07:45:00,,0821.1,5.00,0.00,22.1,21.9,00.0,31.3,23.7,04.3,0002.2,0008.38,0003.81,0003.29
2022-02-22 07:46:00,,0821.0,5.01,0.00,22.3,22.5,00.0,31.4,24.0,04.3,0001.9,0008.78,0003.80,0003.30
2022-02-22 07:47:00,,0821.1,5.00,0.00,22.4,23.2,00.0,31.4,24.2,04.3,0000.0,0008.55,0003.79,0003.31
2022-02-22 07:48:00,,0821.1,4.99,0.00,22.5,23.1,00.0,31.4,24.3,04.3,0000.0,0008.86,0003.82,0003.32
2022-02-22 07:49:00,,0821.1,4.98,0.00,22.5,22.6,00.0,31.4,24.2,04.3,0000.7,0008.87,0003.85,0003.34
2022-02-22 07:50:00,,0820.9,5.00,0.00,22.4,22.2,00.0,31.4,24.0,04.3,0000.3,0008.24,0003.83,0003.35
2022-02-22 07:51:00,,0820.8,5.01,0.00,22.3,21.9,00.0,31.4,23.8,04.3,0000.0,0008.16,0003.82,0003.36
2022-02-22 07:52:00,,0820.9,5.00,0.00,22.2,21.5,00.0,31.3,23.6,04.3,0000.0,0008.18,0003.84,0003.39
2022-02-22 07:53:00,,0820.8,4.99,0.00,22.1,21.5,00.0,31.3,23.6,04.3,0000.0,0008.26,0003.84,0003.38
2022-02-22 07:54:00,,0820.9,5.01,0.00,22.2,22.1,00.0,31.3,23.8,04.3,0000.0,0008.73,0003.87,0003.38
2022-02-22 07:55:00,,0820.9,5.00,0.00,22.3,22.9,00.0,31.4,24.1,04.3,0000.0,0008.82,0003.93,0003.38
2022-02-22 07:56:00,,0821.0,5.00,0.00,22.5,23.2,00.0,31.4,24.3,04.2,0000.0,0008.86,0003.94,0003.40
2022-02-22 07:57:00,,0821.2,4.99,0.00,22.5,22.9,00.0,31.4,24.2,04.2,0000.0,0008.45,0003.94,0003.40
2022-02-22 07:58:00,,0821.1,5.00,0.00,22.4,22.5,00.0,31.4,24.1,04.2,0000.0,0008.32,0003.91,0003.39
2022-02-22 07:59:00,,0821.1,5.01,0.00,22.3,22.1,00.0,31.4,23.9,04.2,0000.0,0008.11,0003.91,0003.39
